Change the Weather History Date:

Wednesday, December 19, 2012

  Actual Average Record
Temperature  
Mean Temperature 26 °F -  
Max Temperature 32 °F 27 °F 48 °F (2002)
Min Temperature 19 °F 13 °F -20 °F (1983)
Degree Days  
Heating Degree Days 40    
Moisture  
Dew Point 24 °F    
Average Humidity 85    
Maximum Humidity 93    
Minimum Humidity 75    
Precipitation  
Precipitation 0.02 in - - ()
Sea Level Pressure  
Sea Level Pressure 30.00 in    
Wind  
Wind Speed 3 mph (SSE)    
Max Wind Speed 9 mph    
Max Gust Speed -    
Visibility 6 miles    
Events Snow    
Averages and records for this station are not official NWS values.
T = Trace of Precipitation, MM = Missing Value Source: NWS Daily Summary

Daily Weather History Graph

Daily Weather History Graph

Search for Another Location

Airport or City:

Trip Planner

Search our weather history database for the weather conditions in past years. The results will help you decide how hot, cold, wet, or windy it might be!

Date:

Astronomy

Dec. 19, 2012 Rise Set
Actual Time 7:24 AM CST 4:18 PM CST
Civil Twilight 6:51 AM CST 4:51 PM CST
Nautical Twilight 6:15 AM CST 5:28 PM CST
Astronomical Twilight 5:40 AM CST 6:03 PM CST
Moon 11:20 AM CST (12/19) No Moon Set
Length of Visible Light 9h 59m
Length of Day
8h 53m
Waxing Crescent, 45% of the Moon is Illuminated
Dec 19
Waxing Crescent
Dec 19
First Quarter
Dec 28
Full
Jan 4
Last Quarter
Jan 11
New

Hourly Weather History & Observations

Time (CST) Temp. Windchill Dew Point Humidity Pressure Visibility Wind Dir Wind Speed Gust Speed Precip Events Conditions
12:53 AM 26.1 °F 21.9 °F 23.0 °F 88% 29.88 in 10.0 mi WNW 3.5 mph - N/A   Clear
1:48 AM 24.8 °F - 21.2 °F 86% 29.87 in 7.0 mi Calm Calm - N/A   Mostly Cloudy
1:53 AM 25.0 °F 20.7 °F 21.9 °F 88% 29.93 in 7.0 mi West 3.5 mph - N/A   Mostly Cloudy
2:53 AM 26.1 °F - 23.0 °F 88% 29.94 in 7.0 mi Calm Calm - N/A   Overcast
3:18 AM 24.8 °F 20.5 °F 21.2 °F 86% 29.89 in 7.0 mi West 3.5 mph - N/A   Partly Cloudy
3:53 AM 24.1 °F - 21.0 °F 88% 29.95 in 6.0 mi Calm Calm - N/A   Partly Cloudy
4:53 AM 19.9 °F - 18.0 °F 92% 29.95 in 4.0 mi Calm Calm - N/A   Clear
5:17 AM 19.4 °F - 17.6 °F 93% 29.91 in 2.5 mi Calm Calm - N/A   Clear
5:26 AM 19.4 °F - 15.8 °F 86% 29.90 in 4.0 mi Calm Calm - N/A   Clear
5:40 AM 19.4 °F 12.8 °F 17.6 °F 93% 29.91 in 2.5 mi SSW 4.6 mph - N/A   Clear
5:51 AM 19.4 °F 14.3 °F 17.6 °F 93% 29.92 in 3.0 mi WSW 3.5 mph - N/A   Clear
5:53 AM 21.0 °F - 18.0 °F 88% 29.98 in 4.0 mi Calm Calm - N/A   Clear
6:53 AM 23.0 °F 17.0 °F 21.0 °F 92% 30.01 in 4.0 mi SSW 4.6 mph - N/A   Mostly Cloudy
7:53 AM 27.0 °F - 23.0 °F 85% 30.03 in 4.0 mi Calm Calm - N/A   Overcast
8:53 AM 27.0 °F - 24.1 °F 89% 30.05 in 3.0 mi Calm Calm - N/A   Overcast
9:53 AM 30.0 °F 25.2 °F 26.1 °F 85% 30.07 in 4.0 mi West 4.6 mph - N/A   Overcast
10:38 AM 30.2 °F 25.4 °F 26.6 °F 86% 30.02 in 7.0 mi WSW 4.6 mph - N/A   Overcast
10:53 AM 30.9 °F 27.5 °F 26.1 °F 82% 30.06 in 8.0 mi Variable 3.5 mph - N/A   Overcast
11:53 AM 32.0 °F - 26.1 °F 79% 30.05 in 9.0 mi Calm Calm - N/A   Overcast
12:06 PM 32.0 °F 28.7 °F 26.6 °F 80% 30.01 in 9.0 mi Variable 3.5 mph - N/A   Overcast
12:53 PM 32.0 °F 27.5 °F 27.0 °F 82% 30.05 in 9.0 mi NNW 4.6 mph - N/A   Overcast
1:53 PM 32.0 °F 28.7 °F 26.1 °F 79% 30.06 in 9.0 mi Variable 3.5 mph - N/A   Overcast
2:46 PM 32.0 °F 28.7 °F 26.6 °F 80% 30.02 in 10.0 mi South 3.5 mph - N/A   Overcast
2:53 PM 32.0 °F - 26.1 °F 79% 30.07 in 10.0 mi Calm Calm - N/A   Overcast
3:53 PM 32.0 °F - 25.0 °F 75% 30.09 in 10.0 mi Calm Calm - N/A   Overcast
4:53 PM 32.0 °F - 26.1 °F 79% 30.12 in 10.0 mi Calm Calm - N/A   Overcast
5:53 PM 32.0 °F - 28.0 °F 85% 30.11 in 8.0 mi Calm Calm - N/A   Overcast
6:53 PM 32.0 °F 27.5 °F 27.0 °F 82% 30.07 in 9.0 mi East 4.6 mph - N/A   Overcast
7:53 PM 32.0 °F 27.5 °F 27.0 °F 82% 30.07 in 8.0 mi ESE 4.6 mph - N/A   Overcast
8:53 PM 30.9 °F 24.3 °F 26.1 °F 82% 30.07 in 8.0 mi East 6.9 mph - N/A   Overcast
9:53 PM 30.9 °F 23.5 °F 26.1 °F 82% 30.02 in 8.0 mi ENE 8.1 mph - N/A   Overcast
10:07 PM 30.2 °F 24.3 °F 26.6 °F 86% 29.99 in 8.0 mi ESE 5.8 mph - N/A   Overcast
10:53 PM 30.9 °F 25.2 °F 26.1 °F 82% 30.03 in 8.0 mi East 5.8 mph - N/A   Overcast
11:22 PM 30.2 °F 22.6 °F 26.6 °F 86% 29.95 in 1.8 mi ENE 8.1 mph - 0.00 in Snow Light Snow
11:38 PM 30.2 °F 21.9 °F 28.4 °F 93% 29.94 in 0.8 mi ENE 9.2 mph - 0.01 in Snow Light Snow
11:53 PM 30.0 °F 21.7 °F 28.0 °F 92% 29.97 in 0.8 mi NE 9.2 mph - 0.02 in Snow Light Snow